Location: Barrio de Buenos Aires
(28.4500°N, 16.2667°W)
Time: 14:29:46
(UTC+00:00)

Cosmos 2263 Rocket - Pass Details

Date: 24 January 2020
Orbit: 822 x 849 km, 71.0° (Epoch: 26 February)

Event Time Altitude Azimuth Distance (km) Brightness Sun altitude
Rises 21:10:06 0° 223° (SW) 3,342 5.9 -33.3°
Reaches altitude 10° 21:12:47 10° 234° (SW) 2,412 5.2 -33.9°
Maximum altitude 21:17:36 31° 295° (WNW) 1,420 3.7 -35.0°
Enters shadow 21:18:22 29° 310° (NW) 1,455 3.7 -35.1°
